Home > Time Zones > World Clock > Weather > U.S.A. > Yuma > Past weeks

Flag for U.S.A. Weather past 2 weeks in Yuma, Arizona, U.S.A.

Now
78 °F

Sunny.


Feels Like: 78 °F
Forecast: 71 / 96 °F
Wind: 8 mph from Northeast

Location: Yuma Marine Corps Air Station

Current Time: Oct 24, 2014 at 10:01:39 AM

Latest Report: Oct 24, 2014 at 8:57 AM


Visibility: 10 mi

Pressure: 29.97 "Hg

Humidity: 31%

Dew point: 45 °F

Location of YumaLocation

Historic Weather in Yuma — Graph

°F

Yuma temperature yesterday

Maximum temperature yesterday: 96 °F (at 1:57 PM)
Minimum temperature yesterday: 71 °F (at 5:57 AM)
Average temperature yesterday: 83 °F

Past Weeks' High & Low Weather Summary

 TemperatureHumidityPressure
High97 °F (Oct 12, 3:57 PM)85% (Oct 11, 4:57 AM)30.00 "Hg (Oct 11, 4:57 AM)
Low67 °F (Oct 16, 6:57 AM)5% (Oct 13, 10:57 AM)29.70 "Hg (Oct 18, 4:57 PM)
Average82 °F40%29.83 "Hg
* Reported Oct 9 8:57 AM — Oct 24 8:57 AM, Yuma, Weather by CustomWeather, © 2014

Note: Actual official high and low records may vary slightly from our data, if they occured in-between our weather recording intervals... More about our weather records

Advertising

Yuma weather history for previous 24 hours

 ConditionsComfort  
Time TempWeatherWind HumidityBarometerVisibility
8:57 AM
Oct 24
78 °FSunny.8 mph31%29.97 "Hg10 mi
7:57 AM72 °FSunny.6 mph38%29.95 "Hg10 mi
6:57 AM70 °FSunny.9 mph39%29.93 "Hg10 mi
5:57 AM69 °FClear.6 mph42%29.92 "Hg10 mi
4:57 AM71 °FClear.3 mph41%29.91 "Hg10 mi
3:57 AM72 °FClear.6 mph40%29.90 "Hg10 mi
2:57 AM72 °FClear.6 mph41%29.90 "Hg10 mi
1:57 AM72 °FClear.No wind40%29.91 "Hg10 mi
12:57 AM73 °FClear.5 mph41%29.92 "Hg10 mi
11:57 PM
Oct 23
75 °FClear.5 mph40%29.91 "Hg10 mi
10:57 PM78 °FClear.No wind36%29.91 "Hg10 mi
9:57 PM80 °FClear.3 mph34%29.90 "Hg10 mi
8:57 PM81 °FClear.No wind35%29.89 "HgN/A
7:57 PM83 °FPassing clouds.No wind30%29.88 "Hg10 mi
6:57 PM89 °FPassing clouds.No wind23%29.87 "Hg10 mi
5:57 PM92 °FPassing clouds.3 mph20%29.86 "Hg10 mi
4:57 PM94 °FSunny.5 mph17%29.86 "Hg10 mi
3:57 PM95 °FSunny.6 mph17%29.86 "Hg10 mi
2:57 PM96 °FSunny.6 mph17%29.87 "Hg10 mi
1:57 PM96 °FPassing clouds.3 mph16%29.88 "Hg10 mi
12:57 PM94 °FPassing clouds.3 mph19%29.91 "Hg10 mi
11:57 AM93 °FPassing clouds.3 mph20%29.94 "Hg10 mi
10:57 AM89 °FPassing clouds.8 mph23%29.96 "Hg10 mi
Weather by CustomWeather, © 2014

See weather overviewHow to use our weather pages